Regional Weather Roundup
Issued by NWS

Home | Current Version | Previous Version | Text Only | Print | Product List | Glossary Off
Versions: 1 2 3 4 5 6 7 8 9 10 11 12 13 14 15 16 17 18 19 20 21 22 23 24 25 26 27 28 29 30 31 32 33 34 35 36 37 38 39 40 41 42 43 44 45 46 47 48 49 50

369
ASUS43 KFSD 270910
RWRSD

WEATHER ROUNDUP FOR SOUTH DAKOTA
NATIONAL WEATHER SERVICE SIOUX FALLS SD
400 AM CDT WED JUL 27 2016

NOTE: "FAIR" INDICATES FEW OR NO CLOUDS BELOW 12,000 FEET WITH NO
SIGNIFICANT WEATHER AND/OR OBSTRUCTIONS TO VISIBILITY.


SDZ001>005-009-010-012>017-271000-
NORTHWEST AND NORTH CENTRAL SOUTH DAKOTA

CITY           SKY/WX    TMP DP  RH WIND       PRES   REMARKS
BUFFALO          N/A     61  59  93 NE7       30.04F
FAITH            N/A     61  58  90 N7        30.05S
MOBRIDGE       CLEAR     66  62  87 N5        30.01R
$$

SDZ012>016-024>037-041>051-057-063-072>074-271000-
SOUTHWEST AND SOUTH CENTRAL SOUTH DAKOTA

CITY           SKY/WX    TMP DP  RH WIND       PRES   REMARKS
RAPID CTY ARPT CLEAR     63  60  90 NW13      30.08S
PIERRE         MOCLDY    64  61  90 CALM      29.98R
CUSTER         CLOUDY    56  53  90 N5        30.21R
ELLSWORTH AFB  CLEAR     66  63  89 N10       30.08S
PHILIP         PTCLDY    68  65  90 N7        30.01R
PINE RIDGE     CLEAR     59  58  96 E3        30.10R
WINNER         FAIR      65  58  78 SW6       30.01R
$$

SDZ004>011-016>023-039-040-271000-
NORTHEAST SOUTH DAKOTA

CITY           SKY/WX    TMP DP  RH WIND       PRES   REMARKS
ABERDEEN       CLOUDY    68  62  81 E6        29.97S
WATERTOWN      LGT RAIN  66  63  90 NE10      29.97S
BROOKINGS      CLOUDY    69  65  86 S6        29.94F
SISSETON         N/A     67  66  97 N10       29.97F
$$

SDZ017-020-022-023-036>040-048>070-271000-
SOUTHEAST SOUTH DAKOTA

CITY           SKY/WX    TMP DP  RH WIND       PRES   REMARKS
SIOUX FALLS    CLOUDY    75  63  66 SW14G25   29.94S
HURON          CLOUDY    69  66  90 NW18      29.93R
CHAMBERLAIN    MOCLDY    66  63  88 W6        30.00R
MITCHELL       CLOUDY    72  62  71 W6        29.97R
YANKTON        CLOUDY    72  63  73 S3        29.91R
$$

ABBREVIATIONS USED IN REMARKS
   TC - TEMPERATURE IN CELSIUS
  WCI - WIND CHILL INDEX
   HX - HEAT INDEX
  VSB - VISIBILITY





USA.gov is the U.S. government's official web portal to all federal, state and local government web resources and services.